Location: Newark
(7.0858°N, 171.3717°E)
Time: 05:15:11
(UTC+00:00)

Transit 4A - Visible Passes

Search period start: 27 November 2020 00:00
Search period end: 07 December 2020 00:00
Orbit: 862 x 982 km, 66.8° (Epoch: 26 November)

Date Brightness Start Highest point End Pass type
(mag) Time Alt. Az. Time Alt. Az. Time Alt. Az.
27 Nov 10.2 08:12:21 10° WNW 08:16:49 21° WSW 08:21:12 10° SSW visible
28 Nov 8.0 06:34:08 10° N 06:40:07 54° ENE 06:45:54 10° SE visible
28 Nov 11.0 08:24:03 10° W 08:26:01 12° WSW 08:27:59 10° SW visible
28 Nov 11.5 17:53:10 10° SE 17:55:20 12° ESE 17:57:30 10° E visible
29 Nov 7.9 06:43:15 10° NNW 06:49:23 89° WSW 06:55:21 10° SSE visible
29 Nov 10.9 18:00:01 10° SSE 18:04:32 22° ESE 18:09:09 10° ENE visible
30 Nov 8.8 06:52:43 10° NNW 06:58:38 52° WSW 07:04:23 10° S visible
01 Dec 10.0 07:02:37 10° NW 07:07:51 30° WSW 07:12:57 10° SSW visible
02 Dec 10.9 07:13:14 10° WNW 07:17:03 17° WSW 07:20:50 10° SSW visible
03 Dec 10.9 16:52:14 10° SE 16:55:35 15° ESE 16:58:58 10° ENE visible
04 Dec 10.1 16:59:47 10° SSE 17:04:47 26° ESE 17:09:54 10° NE visible
05 Dec 9.1 17:08:12 10° S 17:14:01 45° ESE 17:19:58 10° NE visible
06 Dec 8.1 17:17:07 10° SSW 17:23:15 76° ESE 17:29:33 10° NNE visible
